Location: Dover
(39.1580°N, 75.5250°W)
Time: 20:10:12
(UTC-05:00)

SeaSat 1 - Visible Passes

Search period start: 23 January 2017 00:00
Search period end: 02 February 2017 00:00
Orbit: 745 x 747 km, 108.0° (Epoch: 23 January)

Date Brightness Start Highest point End Pass type
(mag) Time Alt. Az. Time Alt. Az. Time Alt. Az.
23 Jan 4.1 04:26:57 10° NNE 04:29:10 27° NNE 04:29:10 27° NNE visible
23 Jan 4.0 06:05:59 10° NNW 06:08:50 16° NW 06:09:00 16° NW visible
24 Jan 5.0 03:45:34 10° NE 03:46:41 15° ENE 03:46:41 15° ENE visible
24 Jan 3.2 05:22:49 10° N 05:26:30 34° NW 05:26:30 34° NW visible
25 Jan 3.1 04:40:33 10° NNE 04:44:04 47° NNE 04:44:04 47° NNE visible
25 Jan 4.1 06:19:48 10° NNW 06:22:24 14° NW 06:23:54 13° WNW visible
26 Jan 4.5 03:59:04 10° NE 04:01:40 25° ENE 04:01:40 25° ENE visible
26 Jan 3.1 05:36:31 10° N 05:40:54 33° NW 05:41:30 32° WNW visible
27 Jan 2.3 04:54:10 10° NNE 04:59:08 86° WNW 04:59:11 85° W visible
27 Jan 4.2 06:33:41 10° NNW 06:35:56 13° NW 06:38:12 10° WNW visible
28 Jan 3.9 04:12:34 10° NE 04:16:56 34° ESE 04:16:56 34° ESE visible
28 Jan 3.2 05:50:12 10° N 05:54:29 30° NW 05:56:47 21° W visible
29 Jan 5.3 03:32:48 10° E 03:34:45 12° ESE 03:34:47 12° ESE visible
29 Jan 2.3 05:07:47 10° NNE 05:12:44 78° WNW 05:14:38 38° SW visible
30 Jan 3.7 04:26:06 10° NE 04:30:42 38° ESE 04:32:37 27° SSE visible
30 Jan 3.3 06:03:54 10° N 06:08:03 28° NW 06:12:11 10° WSW visible
31 Jan 5.2 03:45:56 10° ENE 03:48:25 14° ESE 03:50:46 10° SE visible
31 Jan 2.3 05:21:25 10° NNE 05:26:20 71° WNW 05:30:39 13° SW visible
01 Feb 3.5 04:39:38 10° NE 04:44:20 42° ESE 04:49:00 10° S visible
01 Feb 3.4 06:17:36 10° N 06:21:37 26° NW 06:25:37 10° WSW visible
